Location: Unspecified
(0.0000°N, 0.0000°E)
Time: 05:28:46
(UTC+00:00)

Vanguard 1 Rocket - Pass Details

Date: 16 December 2017
Orbit: 656 x 4222 km, 34.3° (Epoch: 17 January)

Event Time Altitude Azimuth Distance (km) Brightness Sun altitude
Rises 14:16:51 0° 271° (W) 3,073 10.6 48.6°
Reaches altitude 10° 14:19:33 10° 290° (WNW) 2,328 10.0 48.0°
Maximum altitude 14:23:22 20° 337° (NNW) 2,076 9.4 47.2°
Drops below altitude 10° 14:28:33 10° 21° (NNE) 3,290 10.0 46.2°
Sets 14:33:26 0° 37° (NE) 4,902 10.7 45.2°
